Skip Page Navigation
NASA JPL Caltech
NASA Logo - Jet Propulsion Laboratory + View the NASA Portal
+ Center for Near-Earth Object Studies
JPL Home Earth Solar System Stars & Galaxies Technology
JPL Solar System Dynamics
BODIES ORBITS EPHEMERIDES TOOLS PHYSICAL DATA DISCOVERY FAQ SITE MAP
IMPORTANT: The SSD Announcement email list is now available. Major changes are coming in the near future, including possible hostname and/or URL changes. To be notified of such changes, subscribe to this email list.

Please visit this page for more details.


JPL Small-Body Database Browser
Search: [ help ]  
441474 (2008 RD106)
Classification: Main-belt Asteroid          SPK-ID: 2441474
Ephemeris | Orbit Diagram | Orbital Elements | Mission Design | Physical Parameters | Discovery Circumstances ]

[ show orbit diagram ]
Orbital Elements at Epoch 2458600.5 (2019-Apr-27.0) TDB
Reference: JPL 13 (heliocentric ecliptic J2000)
 Element Value Uncertainty (1-sigma)   Units 
e .2050223745363091 1.0761e-07  
a 2.327649384107045 3.1984e-08 au
q 1.850429180289441 2.6399e-07 au
i 6.627691690673381 1.1733e-05 deg
node 355.7325813434883 5.1574e-05 deg
peri 323.723606475395 6.0503e-05 deg
M 28.80369799126758 2.6044e-05 deg
tp 2458496.718362493080
(2019-Jan-13.21836249)
9.403e-05 TDB
period 1297.103917483721
3.55
2.6735e-05
7.32e-08
d
yr
n .2775413713177057 5.7205e-09 deg/d
Q 2.804869587924649 3.8542e-08 au
  Orbit Determination Parameters
   # obs. used (total)      107  
   data-arc span      4101 days (11.23 yr)  
   first obs. used      2007-03-26  
   last obs. used      2018-06-17  
   planetary ephem.      DE431  
   SB-pert. ephem.      SB431-N16  
   condition code      0  
   norm. resid. RMS      .66692  
   source      ORB  
   producer      Otto Matic  
   solution date      2019-Jul-14 11:17:20  

Additional Information
 Earth MOID = .841938 au 
 Jupiter MOID = 2.52334 au 
 T_jup = 3.536 
[ show covariance matrix ]

Ephemeris | Orbit Diagram | Orbital Elements | Mission Design | Physical Parameters | Discovery Circumstances ]

Physical Parameter Table
Parameter Symbol Value Units Sigma Reference Notes
absolute magnitude H 17.6   n/a MPO456091  

441474 (2008 RD106)          Discovered 2008-Sep-06 by CSS at Catalina
Reference: Last Updated: 2015-09-02
Ephemeris | Orbit Diagram | Orbital Elements | Mission Design | Physical Parameters | Discovery Circumstances ]
ABOUT SSD CREDITS/AWARDS PRIVACY/COPYRIGHT GLOSSARY LINKS
FirstGov
(server date/time)  
NASA Home Page
Site Manager:   Ryan S. Park
Webmaster  Alan B. Chamberlin